Volver al catálogo

STARLINK-5197

ActivoComunicacionesVLEO
NORAD 54097·PAYLOAD·🇺🇸 United States

Lanzado Oct 20, 2022 desde Cape Canaveral Space Force Station

Loading…

Próximos Pases (próximas 24 horas)

TLE

ActualizadoSource: CelesTrak SupGP

Época: Sep 15, 2026, 02:03 UTC

1 54097C 22136AY  26258.08590278 -.00032045  00000+0 -20099-2 0  2586
2 54097  53.1590 178.1914 0001866  79.1005  86.3406 15.08843945    19

Sigue STARLINK-5197 en tiempo real con AllMySat

Download on the App Store